Weather History for Nan, Thailand

Change the Weather History Date:

Wednesday, January 8, 2014

  Actual Average Record
Temperature  
Mean Temperature 72 °F -  
Max Temperature 90 °F 87 °F - ()
Min Temperature 55 °F 57 °F - ()
Cooling Degree Days 8    
Growing Degree Days 22 (Base 50)    
Moisture  
Dew Point 59 °F    
Average Humidity 62    
Maximum Humidity 100    
Minimum Humidity 26    
Precipitation  
Precipitation 0.00 in 0.01 in - ()
Sea Level Pressure  
Sea Level Pressure 29.92 in    
Wind  
Wind Speed 1 mph ()    
Max Wind Speed 4 mph    
Max Gust Speed -    
Visibility 4.2 miles    
Events Fog    
T = Trace of Precipitation, MM = Missing Value Source: Averaged Metar Reports

Daily Weather History Graph

Daily Weather History Graph

Search for Another Location

Airport:

Trip Planner

Search our weather history database for the weather conditions in past years. The results will help you decide how hot, cold, wet, or windy it might be!

Date:

Astronomy

Jan. 08, 2014 Rise Set
Actual Time 6:51 AM ICT 5:55 PM ICT
Civil Twilight 6:27 AM ICT 6:19 PM ICT
Nautical Twilight 6:00 AM ICT 6:46 PM ICT
Astronomical Twilight 5:34 AM ICT 7:13 PM ICT
Moon 12:01 PM ICT (1/8) No Moon Set
Length of Visible Light 11h 51m
Length of Day
11h 03m
Waxing Crescent, 50% of the Moon is Illuminated
Jan 8
Waxing Crescent
Jan 16
Full
Jan 24
Last Quarter
Jan 31
New
Feb 7
First Quarter

Hourly Weather History & Observations

Time (ICT) Temp. Heat Index Dew Point Humidity Pressure Visibility Wind Dir Wind Speed Gust Speed Precip Events Conditions
1:00 AM 64 °F - 62 °F 90% 29.94 in 5 mi Calm Calm - -   Mist
4:00 AM 61 °F - 60 °F 93% 29.94 in 4 mi Calm Calm - -   Mist
7:00 AM 59 °F - 58 °F 96% 29.99 in 0 mi Calm Calm - - Fog Partial Fog
7:00 AM 55.4 °F - 55.4 °F 100% 29.98 in 0.2 mi North 2.3 mph - N/A Fog Fog
8:00 AM 59.0 °F - 59.0 °F 100% 29.98 in 0.2 mi Variable 1.2 mph - N/A Fog Fog
9:00 AM 64.4 °F - 64.4 °F 100% 30.01 in 1.2 mi Variable 1.2 mph - N/A   Partly Cloudy
10:00 AM 70 °F - 64 °F 75% 30.02 in 4 mi Calm Calm - -   Mist
10:00 AM 71.6 °F - 59.0 °F 64% 30.01 in 1.9 mi Variable 3.5 mph - N/A   Mist
11:00 AM 77.0 °F - 57.2 °F 50% 30.01 in 3.7 mi Variable 2.3 mph - N/A   Unknown
12:00 PM 84.2 °F 83.8 °F 59.0 °F 42% 29.95 in 4.3 mi Variable 2.3 mph - N/A   Unknown
1:00 PM 83 °F - 64 °F 42% 29.92 in 6 mi Calm Calm - -   Partly Cloudy
1:00 PM 86.0 °F 84.9 °F 57.2 °F 37% 29.92 in 5.0 mi Variable 3.5 mph - N/A   Unknown
2:00 PM 87.8 °F 86.1 °F 55.4 °F 33% 29.89 in 6.2 mi Variable 3.5 mph - N/A   Partly Cloudy
3:00 PM 89.6 °F 87.3 °F 53.6 °F 29% 29.86 in - North - - N/A   Clear
4:00 PM 90 °F - 61 °F 28% 29.82 in 6 mi Calm Calm - -  
4:00 PM 89.6 °F - 50.0 °F 26% 29.83 in 6.2 mi Variable 1.2 mph - N/A   Partly Cloudy
5:00 PM 87.8 °F - 51.8 °F 29% 29.83 in 6.2 mi Variable 2.3 mph - N/A   Partly Cloudy
6:00 PM 78.8 °F - 59.0 °F 51% 29.86 in 6.2 mi Variable 2.3 mph - N/A   Partly Cloudy
7:00 PM 77 °F - 66 °F 62% 29.86 in 6 mi Calm Calm - -  
7:00 PM 71.6 °F - 62.6 °F 73% 29.86 in 6.2 mi North 3.5 mph - N/A   Partly Cloudy
10:00 PM 69 °F - 65 °F 83% 29.93 in 6 mi Calm Calm - -